FENGYUN 1C DEB

Satellite information

Favourite Embed

Satellite Type and Status

DEBRISIN ORBIT

Key statistics

Satellite FENGYUN 1C DEB at a glance.

Uptime

9612

Days in orbit

Revolutions

≈ 14.1

Per day

Orbit

SSO

Sun Synchronous Orbit

Inclination

98.8

Latest

Satellite identification and parameters

Extended collection of information and parameters for FENGYUN 1C DEB.

Object identification

Identified? True

Debris? True

Object name: FENGYUN 1C DEB

International designator: 1999-025BYK

Object number (NORAD): 31544

Object ID (CCSDS): 31544

Country: PEOPLES REPUBLIC OF CHINA (PRC)

Current information (Y/N): Y

RCS size: SMALL

Orbital parameters

Period: 101.842 minutes

Inclination: 98.8415 deg

SMA: 7224.025 km

Apoapsis: 869.483 km

Periapsis: 822.297 km

RAAN: 294.8227 deg

Eccentricy: 0.00326594

Argument of periapsis: 204.3742 deg

Mean anomaly: 155.5888 deg

Mean motion: 14.13949566 rev/day

Mean motion (dot): 0.00001479 rev/day2

B* drag term: 0.00079862392 1/REarth

Two-line elements (TLE)

Creation date: Aug. 31, 2025, 2:26 a.m.

Reference frame: TEME

Reference center: EARTH

Epoch: Aug. 30, 2025, 9:02 a.m. UTC

TLE line 0: 0 FENGYUN 1C DEB

TLE line 1: 1 31544U 99025BYK 25242.37680302 .00001479 00000-0 79862-3 0 9992

TLE line 2: 2 31544 98.8415 294.8227 0032659 204.3742 155.5888 14.13949566942828

Live tracking on map

Real-time ground track for satellite FENGYUN 1C DEB.

In-orbit conjunctions

A list of the most updated potential collisions computed for object FENGYUN 1C DEB.

Target Orbit TCA Probability of collision Miss distance Type
SL-16 DEB LEO 2025-04-04 20:37:27 0.0001324388 304.0 (m) DEBRIS
FENGYUN 1C DEB SSO 2024-12-05 06:22:05 0.0002206529 26.0 (m) DEBRIS

Associated space launch

Chinese polar orbiting meteorological satellite

FENGYUN 1C DEB was lifted into orbit during the mission ‘Long March 4B | Feng Yun 1C’, on board a Long March 4B space rocket.

The launch took place on May 10, 1999, 1:33 a.m. from Launch Complex 7.

For more information about the launch, click the button.

Launch to space Long March 4B | Feng Yun 1C
Long March 4B | Feng Yun 1C

Agency: N/A

Status: Launch Successful

Launch date: May 10, 1999, 1:33 a.m. UTC

Rocket: Long March 4B

Launch pad: Launch Complex 7

Location: Taiyuan Satellite Launch Center, People's Republic of China

...

Latest news about this satellite

There are no fresh news available about this satellite. Check back as we update our databases every day.


Newsletter sign-up

Weekly statistics, charts and insights to help you stay on top of the space industry.